Nantucket, MA

1:04 PM EDT on July 24, 2017 (GMT -0400)
Nantucket Memorial

Weather History for KACK - February, 2014

Change the Weather History Date:

Saturday, February 15, 2014

  Actual Average Record
Temperature  
Mean Temperature 34 °F -  
Max Temperature 39 °F 37 °F 51 °F (1949)
Min Temperature 28 °F 23 °F 7 °F (2015)
Degree Days  
Heating Degree Days 32    
Moisture  
Dew Point 30 °F    
Average Humidity 84    
Maximum Humidity 96    
Minimum Humidity 65    
Precipitation  
Precipitation 0.63 in - - ()
Sea Level Pressure  
Sea Level Pressure 29.54 in    
Wind  
Wind Speed 14 mph (North)    
Max Wind Speed 39 mph    
Max Gust Speed 52 mph    
Visibility 5 miles    
Events Fog , Rain , Snow    
Averages and records for this station are not official NWS values.
T = Trace of Precipitation, MM = Missing Value Source: NWS Daily Summary

Daily Weather History Graph

Daily Weather History Graph

Search for Another Location

Airport or City:

Trip Planner

Search our weather history database for the weather conditions in past years. The results will help you decide how hot, cold, wet, or windy it might be!

Date:

Astronomy

Feb. 15, 2014 Rise Set
Actual Time 6:35 AM EST 5:14 PM EST
Civil Twilight 6:06 AM EST 5:42 PM EST
Nautical Twilight 5:34 AM EST 6:14 PM EST
Astronomical Twilight 5:02 AM EST 6:46 PM EST
Moon 6:12 PM EST (2/15) 6:31 AM EST (2/15)
Length of Visible Light 11h 35m
Length of Day
10h 39m
Full, 100% of the Moon is Illuminated
Feb 15
Full
Feb 22
Last Quarter
Mar 1
New
Mar 8
First Quarter
Mar 16
Full

Hourly Weather History & Observations

Time (EST) Temp. Windchill Dew Point Humidity Pressure Visibility Wind Dir Wind Speed Gust Speed Precip Events Conditions
12:53 AM 35.1 °F 27.4 °F 26.1 °F 70% 29.79 in 10.0 mi West 10.4 mph - N/A   Clear
1:53 AM 34.0 °F 27.2 °F 27.0 °F 75% 29.81 in 9.0 mi WNW 8.1 mph - N/A   Clear
2:53 AM 32.0 °F 26.4 °F 26.1 °F 79% 29.82 in 8.0 mi West 5.8 mph - N/A   Clear
3:53 AM 30.9 °F 26.2 °F 26.1 °F 82% 29.84 in 8.0 mi WSW 4.6 mph - N/A   Clear
4:53 AM 30.0 °F - 26.1 °F 85% 29.83 in 6.0 mi Calm Calm - N/A   Clear
5:53 AM 28.0 °F - 25.0 °F 88% 29.83 in 7.0 mi Calm Calm - N/A   Clear
6:53 AM 28.0 °F - 25.0 °F 88% 29.84 in 6.0 mi Calm Calm - N/A   Clear
7:53 AM 30.9 °F - 30.0 °F 96% 29.86 in 4.0 mi Calm Calm - N/A   Clear
8:53 AM 36.0 °F 31.1 °F 30.0 °F 79% 29.82 in 5.0 mi ENE 5.8 mph - N/A   Haze
9:53 AM 37.9 °F 32.1 °F 27.0 °F 65% 29.84 in 10.0 mi East 8.1 mph - N/A   Scattered Clouds
10:53 AM 37.9 °F 32.1 °F 28.0 °F 68% 29.81 in 10.0 mi East 8.1 mph - N/A   Overcast
11:53 AM 39.0 °F 34.0 °F 30.0 °F 70% 29.78 in 10.0 mi East 6.9 mph - N/A   Mostly Cloudy
12:53 PM 37.9 °F 28.9 °F 30.9 °F 76% 29.71 in 6.0 mi NNE 16.1 mph - 0.00 in Rain Light Rain
1:12 PM 37.4 °F 28.5 °F 30.2 °F 75% 29.68 in 4.0 mi NE 15.0 mph - 0.01 in Rain Light Rain
1:53 PM 37.0 °F 27.7 °F 32.0 °F 82% 29.65 in 5.0 mi NE 16.1 mph 24.2 mph 0.03 in Rain Light Rain
2:53 PM 37.0 °F 25.9 °F 33.1 °F 86% 29.58 in 6.0 mi NE 23.0 mph 28.8 mph 0.05 in Rain Light Rain
3:00 PM 37.4 °F 26.6 °F 33.8 °F 87% 29.57 in 6.0 mi NE 21.9 mph - 0.01 in Rain Light Rain
3:53 PM 37.0 °F 25.6 °F 34.0 °F 89% 29.53 in 4.0 mi NE 24.2 mph 31.1 mph 0.08 in Rain Rain
4:49 PM 37.4 °F 25.6 °F 33.8 °F 87% 29.46 in 3.0 mi NE 26.5 mph 36.8 mph 0.10 in Rain Rain
4:53 PM 37.0 °F 25.1 °F 34.0 °F 89% 29.46 in 3.0 mi NE 26.5 mph 36.8 mph 0.11 in Rain Rain
5:07 PM 37.4 °F 25.0 °F 33.8 °F 87% 29.44 in 5.0 mi NNE 29.9 mph 38.0 mph 0.02 in Rain Rain
5:53 PM 37.0 °F 25.4 °F 34.0 °F 89% 29.40 in 4.0 mi NNE 25.3 mph 36.8 mph 0.09 in Rain Rain
6:53 PM 36.0 °F 22.8 °F 33.1 °F 89% 29.34 in 4.0 mi NNE 31.1 mph 41.4 mph 0.13 in Rain Rain
7:53 PM 33.1 °F 19.6 °F 30.9 °F 92% 29.31 in 2.5 mi North 27.6 mph 38.0 mph 0.07 in Snow Light Snow
8:34 PM 33.8 °F 19.4 °F 30.2 °F 87% 29.26 in 1.2 mi North 33.4 mph 42.6 mph 0.03 in Snow Light Snow
8:53 PM 33.1 °F 18.9 °F 30.9 °F 92% 29.21 in 1.2 mi North 31.1 mph 46.0 mph 0.03 in Snow Light Snow
9:53 PM 33.1 °F 18.7 °F 30.9 °F 92% 29.22 in 1.2 mi North 32.2 mph 41.4 mph 0.03 in   Overcast
10:33 PM 33.8 °F 19.6 °F 30.2 °F 87% 29.20 in 0.8 mi NNW 32.2 mph 47.2 mph 0.00 in   Overcast
10:41 PM 33.8 °F 20.3 °F 30.2 °F 87% 29.20 in 1.0 mi NNW 28.8 mph 42.6 mph 0.00 in   Overcast
10:53 PM 33.1 °F 19.1 °F 30.9 °F 92% 29.21 in 1.0 mi NNW 29.9 mph 43.7 mph 0.00 in Snow Light Snow
11:00 PM 33.8 °F 19.4 °F 30.2 °F 87% 29.21 in 0.8 mi NNW 33.4 mph 41.4 mph 0.00 in Snow Light Snow
11:30 PM 33.8 °F 19.0 °F 30.2 °F 87% 29.22 in 0.5 mi NNW 35.7 mph 46.0 mph 0.01 in Fog Fog
11:53 PM 32.0 °F 16.0 °F 30.0 °F 92% 29.24 in 0.5 mi NNW 39.1 mph 51.8 mph 0.01 in Fog , Snow Snow